Regional Weather Roundup
Issued by NWS Charleston, SC

Current Version | Previous Version | Graphics & Text | Print | Product List | Glossary On
Versions: 1 2 3 4 5 6 7 8 9 10 11 12 13 14 15 16 17 18 19 20 21 22 23 24 25 26 27 28 29 30 31 32 33 34 35 36 37 38 39 40 41 42 43 44 45 46 47 48 49 50
000 ASUS42 KCHS 192112 RWRCHS REGIONAL WEATHER ROUNDUP NATIONAL WEATHER SERVICE CHARLESTON SC 500 PM EDT THU OCT 19 2017 NOTE: "FAIR" INDICATES FEW OR NO CLOUDS BELOW 12,000 FEET WITH NO SIGNIFICANT WEATHER AND/OR OBSTRUCTIONS TO VISIBILITY. NOT ALL STATIONS ARE QUALITY CONTROLLED. USE DATA WITH CAUTION... ESPECIALLY DEWPOINT OBSERVATIONS. SCZ027-030-031-034>040-042>050-192200- ...SOUTHEAST SOUTH CAROLINA... CITY SKY/WX TMP DP RH WIND PRES REMARKS N CHARLESTON MOSUNNY 78 58 49 NE7 30.17F WATERFRONT PRK N/A 77 63 61 E13 30.02F JOHNS ISLAND FAIR 77 61 57 E9 30.17F PINOPOLIS N/A 75 61 60 NW6 30.12F MONCKS CORNER FAIR 75 55 50 N5 30.18F SUMMERVILLE FAIR 77 54 44 N7 30.19F BEAUFORT MCAS NOT AVBL BEAUFORT ARPT FAIR 77 59 53 NE8 30.17F HAZE HILTON HEAD IS NOT AVBL WALTERBORO PTCLDY 77 57 50 E5 30.19F ALLENDALE N/A 79 50 36 N7 N/A ...SOUTHERN MIDLANDS AND PEE DEE... CITY SKY/WX TMP DP RH WIND PRES REMARKS GEORGETOWN FAIR 77 59 53 E7 30.19F KINGSTREE FAIR 77 54 44 NW3 30.19F ORANGEBURG SUNNY 78 49 35 VRB3 30.20F BARNWELL N/A 79 54 41 NE6 30.20F AIKEN FAIR 75 46 35 N3 30.25S MANNING HAZE 77 46 33 MISG 30.20F VSB<1/4 COLUMBIA MOSUNNY 78 52 40 CALM 30.21S SUMTER SUNNY 77 53 42 NE3 30.18F FLORENCE CLOUDY 77 54 44 NE6 30.20F MYRTLE BEACH MOSUNNY 76 60 57 SE5 30.19F N MYRTLE BEACH MOSUNNY 75 64 68 SE5 30.18S $$ GAZ063-065-086>088-099>101-113>116-118-119-134>141-150-192200- ...SOUTHEAST GEORGIA... CITY SKY/WX TMP DP RH WIND PRES REMARKS SAVANNAH ARPT MOSUNNY 81 58 45 NE9 30.17F HUNTER AAF SUNNY 80 58 46 NE8 30.14F FORT STEWART SUNNY 80 58 45 N7 30.15F STATESBORO SUNNY 80 48 32 NE6 30.18F SYLVANIA CLEAR 80 58 47 NE8 30.19F CLAXTON FAIR 81 58 44 N5 30.18S ...CSRA...CENTRAL AND FAR SOUTHEAST GEORGIA... CITY SKY/WX TMP DP RH WIND PRES REMARKS THOMSON SUNNY 75 41 28 NE6 30.27S AUGUSTA-BUSH SUNNY 80 48 32 NE5 30.20F AUGUSTA-DANIEL SUNNY 80 46 30 CALM 30.21F SWAINSBORO FAIR 79 48 34 N3 30.20F VIDALIA SUNNY 81 55 41 E7 30.18F EASTMAN FAIR 82 30 15 NE5 30.21S HAZLEHURST FAIR 81 34 18 N8 30.17S ALMA SUNNY 81 58 45 NE6 30.16F WAYCROSS SUNNY 82 55 39 NE10 30.15F JESUP NOT AVBL BAXLEY FAIR 79 57 47 N8 30.16F BRUNSWICK MOSUNNY 77 55 47 NE16 30.17F SAINT SIMONS CLOUDY 77 65 66 NE14 30.16F $$ SCZ027-028-034-036>038-045-046-048>050-GAZ119-141-192200- ...LAKE AND SUPPLEMENTAL COASTAL OBSERVATIONS... STATION/POSITION TIME TEMP WIND PRES WAVE SWELL AIR SEA DIR/SP/G HT/PER HT/PER/DIR (UTC) (F) (DEG/KT/KT) (MB) (FT/S) (FT/S/D) WINYAH BAY 1945 74 70/ 8 1022.0 LAKE MURRAY 2020 73 200/ 4/ 6 1022.4F ACE BASIN NERRS 1945 81 360/ 2 1022.0 FORT PULASKI 2042 74 75 90/ 14/ 16 1022.1F SAPELO ISLAND 2000 79 40/ 12 1022.0 $$ ANZ835-935-AMZ111-154-330-350-352-354-370-450-454-472-192200- ...C-MAN AND BUOY OBSERVATIONS... STATION/POSITION TIME TEMP WIND PRES WAVE SWELL AIR SEA DIR/SP/G HT/PER HT/PER/DIR (UTC) (F) (DEG/KT/KT) (MB) (FT/S) (FT/S/D) BUOY 41004 2050 76 80 40/ 16/ 19 1020.8F 6/ 8 3/110/ 8 BUOY 41008 2050 75 77 50/ 19/ 21 1020.9R 6/ 9 3/100/ 9 FOLLY BEACH CMAN 2000 74 60/ 13/ 15 1022.5F CAPERS NEARSHORE 2008 72 73 60/ 12/ 17 1021.7F FRIPP NEARSHORE 2008 76 70/ 12/ 16 N/A STATION/POSITION TIME TEMP WIND PRES WAVE SWELL AIR SEA DIR/SP/G HT/PER HT/PER/DIR (UTC) (F) (DEG/KT/KT) (MB) (FT/S) (FT/S/D) 5E ST. MARYS GA 2030 77 N/A 6/ 6 2/100/11 FRYING PAN BUOY 2050 75 76 30/ 16/ 17 1021.1F 5/ 9 3/120/ 9 BUOY 41025 2050 75 81 10/ 10/ 14 1021.6S 4/ 9 5/130/ 9 CAPE LOOKOUT NC 2000 73 40/ 10/ 10 1021.8S BUOY 41002 2050 78 80 40/ 16/ 21 1018.1F 6/ 8 3/ 70/ 8 BUOY 41010 NOT AVBL ST AUGUSTINE FL 2100 75 78 40/ 17/ 20 1020.0R $$

USA.gov is the U.S. government's official web portal to all federal, state and local government web resources and services.